Time,TemperatureF,DewpointF,PressureIn,WindDirection,WindDirectionDegrees,WindSpeedMPH,WindSpeedGustMPH,Humidity,HourlyPrecipIn,Conditions,Clouds,dailyrainin,SoftwareType,DateUTC
2013-09-28 00:05:00,63.5,56.0,29.99,SW,236,0.0,1.0,76,0.00,,,0.00,weatherlink.com 1.10,2013-09-28 05:05:00,
2013-09-28 00:20:00,63.5,56.0,29.99,SSW,205,0.0,1.0,76,0.00,,,0.00,weatherlink.com 1.10,2013-09-28 05:20:00,
2013-09-28 00:35:00,63.5,56.0,29.99,SE,127,0.0,1.0,76,0.00,,,0.00,weatherlink.com 1.10,2013-09-28 05:35:00,
2013-09-28 00:50:00,62.9,56.0,29.99,SE,129,0.0,1.0,77,0.00,,,0.00,weatherlink.com 1.10,2013-09-28 05:50:00,
2013-09-28 01:05:00,62.4,55.0,29.98,SE,128,0.0,1.0,78,0.00,,,0.00,weatherlink.com 1.10,2013-09-28 06:05:00,
2013-09-28 01:20:00,62.2,56.0,29.98,SSW,194,0.0,2.0,79,0.00,,,0.00,weatherlink.com 1.10,2013-09-28 06:20:00,
2013-09-28 01:35:00,62.4,55.0,29.98,ESE,103,0.0,2.0,78,0.00,,,0.00,weatherlink.com 1.10,2013-09-28 06:35:00,
2013-09-28 01:50:00,61.7,56.0,29.99,ESE,104,0.0,1.0,80,0.00,,,0.00,weatherlink.com 1.10,2013-09-28 06:50:00,
2013-09-28 02:05:00,61.2,55.0,29.98,East,101,1.0,1.0,81,0.00,,,0.00,weatherlink.com 1.10,2013-09-28 07:05:00,
2013-09-28 02:20:00,61.2,55.0,29.97,East,101,1.0,2.0,81,0.00,,,0.00,weatherlink.com 1.10,2013-09-28 07:20:00,
2013-09-28 02:35:00,61.1,55.0,29.97,ESE,105,0.0,2.0,81,0.00,,,0.00,weatherlink.com 1.10,2013-09-28 07:35:00,
2013-09-28 02:50:00,61.0,56.0,29.97,East,98,1.0,2.0,82,0.00,,,0.00,weatherlink.com 1.10,2013-09-28 07:50:00,
2013-09-28 03:05:00,60.6,55.0,29.97,SSE,153,0.0,1.0,83,0.00,,,0.00,weatherlink.com 1.10,2013-09-28 08:05:00,
2013-09-28 03:20:00,60.4,55.0,29.96,East,93,1.0,2.0,83,0.00,,,0.00,weatherlink.com 1.10,2013-09-28 08:20:00,
2013-09-28 03:35:00,60.4,55.0,29.97,East,96,0.0,2.0,83,0.00,,,0.00,weatherlink.com 1.10,2013-09-28 08:35:00,
2013-09-28 03:50:00,60.1,55.0,29.96,East,96,0.0,2.0,84,0.00,,,0.00,weatherlink.com 1.10,2013-09-28 08:50:00,
2013-09-28 04:05:00,60.2,55.0,29.97,East,96,0.0,2.0,84,0.00,,,0.00,weatherlink.com 1.10,2013-09-28 09:05:00,
2013-09-28 04:20:00,60.0,55.0,29.97,East,84,0.0,2.0,84,0.00,,,0.00,weatherlink.com 1.10,2013-09-28 09:20:00,
2013-09-28 04:35:00,59.8,55.0,29.97,East,84,0.0,1.0,85,0.00,,,0.00,weatherlink.com 1.10,2013-09-28 09:35:00,
2013-09-28 04:50:00,59.9,55.0,29.97,East,90,1.0,2.0,84,0.00,,,0.00,weatherlink.com 1.10,2013-09-28 09:50:00,
2013-09-28 05:06:00,59.5,55.0,29.97,SE,146,1.0,2.0,85,0.00,,,0.00,weatherlink.com 1.10,2013-09-28 10:06:00,
2013-09-28 05:21:00,59.3,55.0,29.97,South,172,0.0,2.0,85,0.00,,,0.00,weatherlink.com 1.10,2013-09-28 10:21:00,
2013-09-28 05:36:00,59.4,55.0,29.97,SSE,163,0.0,2.0,85,0.00,,,0.00,weatherlink.com 1.10,2013-09-28 10:36:00,
2013-09-28 05:51:00,59.3,55.0,29.98,SW,229,0.0,1.0,85,0.00,,,0.00,weatherlink.com 1.10,2013-09-28 10:51:00,
2013-09-28 06:06:00,59.8,55.0,29.97,ESE,121,0.0,2.0,84,0.00,,,0.00,weatherlink.com 1.10,2013-09-28 11:06:00,
2013-09-28 06:21:00,59.7,55.0,29.98,ESE,109,0.0,3.0,84,0.00,,,0.00,weatherlink.com 1.10,2013-09-28 11:21:00,
2013-09-28 06:36:00,59.4,55.0,29.98,SW,217,1.0,2.0,85,0.00,,,0.00,weatherlink.com 1.10,2013-09-28 11:36:00,
2013-09-28 06:51:00,59.4,55.0,29.98,SSE,155,0.0,2.0,85,0.00,,,0.00,weatherlink.com 1.10,2013-09-28 11:51:00,
2013-09-28 07:06:00,59.1,55.0,29.98,ESE,103,0.0,1.0,86,0.00,,,0.00,weatherlink.com 1.10,2013-09-28 12:06:00,
2013-09-28 07:21:00,59.6,56.0,29.99,East,95,1.0,2.0,86,0.00,,,0.00,weatherlink.com 1.10,2013-09-28 12:21:00,
2013-09-28 07:36:00,60.3,56.0,29.99,WSW,248,1.0,1.0,86,0.00,,,0.00,weatherlink.com 1.10,2013-09-28 12:36:00,
2013-09-28 07:51:00,61.3,57.0,29.99,ENE,57,0.0,4.0,85,0.00,,,0.00,weatherlink.com 1.10,2013-09-28 12:51:00,
2013-09-28 08:06:00,62.7,58.0,29.98,East,97,0.0,3.0,84,0.00,,,0.00,weatherlink.com 1.10,2013-09-28 13:06:00,
2013-09-28 08:21:00,63.9,58.0,29.98,SW,228,0.0,5.0,82,0.00,,,0.00,weatherlink.com 1.10,2013-09-28 13:21:00,
2013-09-28 08:36:00,64.8,59.0,29.98,SW,222,3.0,4.0,82,0.00,,,0.00,weatherlink.com 1.10,2013-09-28 13:36:00,
2013-09-28 08:51:00,65.6,60.0,29.98,South,177,1.0,3.0,81,0.00,,,0.00,weatherlink.com 1.10,2013-09-28 13:51:00,
2013-09-28 09:06:00,66.8,60.0,29.98,East,91,0.0,3.0,80,0.00,,,0.00,weatherlink.com 1.10,2013-09-28 14:06:00,
2013-09-28 09:21:00,68.9,62.0,29.98,SW,229,4.0,5.0,78,0.00,,,0.00,weatherlink.com 1.10,2013-09-28 14:21:00,
2013-09-28 09:36:00,70.6,62.0,29.97,WSW,246,6.0,10.0,75,0.00,,,0.00,weatherlink.com 1.10,2013-09-28 14:36:00,
2013-09-28 09:51:00,71.9,63.0,29.97,SW,225,5.0,12.0,74,0.00,,,0.00,weatherlink.com 1.10,2013-09-28 14:51:00,
2013-09-28 10:06:00,73.4,64.0,29.96,SSE,166,8.0,16.0,72,0.00,,,0.00,weatherlink.com 1.10,2013-09-28 15:06:00,
2013-09-28 10:21:00,74.8,64.0,29.96,SW,227,6.0,15.0,69,0.00,,,0.00,weatherlink.com 1.10,2013-09-28 15:21:00,
2013-09-28 10:36:00,76.1,65.0,29.95,SW,226,8.0,14.0,68,0.00,,,0.00,weatherlink.com 1.10,2013-09-28 15:36:00,
2013-09-28 10:51:00,77.2,65.0,29.95,SE,141,11.0,13.0,66,0.00,,,0.00,weatherlink.com 1.10,2013-09-28 15:51:00,
2013-09-28 11:06:00,78.1,65.0,29.94,SW,231,14.0,19.0,64,0.00,,,0.00,weatherlink.com 1.10,2013-09-28 16:06:00,
2013-09-28 11:21:00,78.9,65.0,29.94,SW,233,8.0,23.0,63,0.00,,,0.00,weatherlink.com 1.10,2013-09-28 16:21:00,
2013-09-28 11:37:00,79.8,65.0,29.93,SW,219,9.0,22.0,61,0.00,,,0.00,weatherlink.com 1.10,2013-09-28 16:37:00,
2013-09-28 11:52:00,80.3,65.0,29.93,SW,231,10.0,21.0,60,0.00,,,0.00,weatherlink.com 1.10,2013-09-28 16:52:00,
2013-09-28 12:07:00,79.8,65.0,29.94,SW,233,11.0,23.0,60,0.00,,,0.00,weatherlink.com 1.10,2013-09-28 17:07:00,
2013-09-28 12:22:00,80.4,65.0,29.93,SSW,198,10.0,15.0,60,0.00,,,0.00,weatherlink.com 1.10,2013-09-28 17:22:00,
2013-09-28 12:37:00,81.0,65.0,29.93,SW,225,2.0,21.0,58,0.00,,,0.00,weatherlink.com 1.10,2013-09-28 17:37:00,
2013-09-28 12:52:00,82.5,65.0,29.92,WSW,252,6.0,22.0,55,0.00,,,0.00,weatherlink.com 1.10,2013-09-28 17:52:00,
2013-09-28 13:22:00,79.1,64.0,29.93,West,274,6.0,17.0,61,0.00,,,0.00,weatherlink.com 1.10,2013-09-28 18:22:00,
2013-09-28 13:37:00,78.0,64.0,29.92,South,190,13.0,17.0,62,0.00,,,0.00,weatherlink.com 1.10,2013-09-28 18:37:00,
2013-09-28 13:52:00,77.7,65.0,29.92,SW,236,6.0,13.0,65,0.00,,,0.00,weatherlink.com 1.10,2013-09-28 18:52:00,
2013-09-28 14:07:00,77.6,65.0,29.91,SSW,200,6.0,12.0,65,0.00,,,0.00,weatherlink.com 1.10,2013-09-28 19:07:00,
2013-09-28 14:22:00,77.4,65.0,29.91,South,173,7.0,16.0,66,0.00,,,0.00,weatherlink.com 1.10,2013-09-28 19:22:00,
2013-09-28 14:37:00,77.5,65.0,29.91,SW,219,3.0,12.0,65,0.00,,,0.00,weatherlink.com 1.10,2013-09-28 19:37:00,
2013-09-28 14:52:00,77.7,65.0,29.90,SW,224,7.0,13.0,65,0.00,,,0.00,weatherlink.com 1.10,2013-09-28 19:52:00,
2013-09-28 15:07:00,76.6,66.0,29.90,SW,219,3.0,13.0,69,0.00,,,0.00,weatherlink.com 1.10,2013-09-28 20:07:00,
2013-09-28 15:22:00,75.1,67.0,29.90,SW,224,7.0,11.0,75,0.00,,,0.00,weatherlink.com 1.10,2013-09-28 20:22:00,
2013-09-28 15:37:00,73.0,67.0,29.89,South,174,3.0,11.0,82,0.02,,,0.02,weatherlink.com 1.10,2013-09-28 20:37:00,
2013-09-28 15:52:00,71.5,68.0,29.89,SW,233,3.0,6.0,87,0.06,,,0.06,weatherlink.com 1.10,2013-09-28 20:52:00,
2013-09-28 16:07:00,71.5,68.0,29.88,South,174,2.0,6.0,89,0.06,,,0.06,weatherlink.com 1.10,2013-09-28 21:07:00,
2013-09-28 16:22:00,72.3,69.0,29.88,SSW,211,5.0,7.0,88,0.05,,,0.06,weatherlink.com 1.10,2013-09-28 21:22:00,
2013-09-28 16:37:00,72.6,69.0,29.88,West,273,2.0,5.0,88,0.04,,,0.06,weatherlink.com 1.10,2013-09-28 21:37:00,
2013-09-28 16:52:00,72.3,69.0,29.88,WSW,256,1.0,3.0,89,0.00,,,0.06,weatherlink.com 1.10,2013-09-28 21:52:00,
2013-09-28 17:07:00,71.9,69.0,29.89,WSW,243,1.0,3.0,90,0.00,,,0.06,weatherlink.com 1.10,2013-09-28 22:07:00,
2013-09-28 17:22:00,71.7,69.0,29.89,WSW,238,1.0,3.0,90,0.00,,,0.06,weatherlink.com 1.10,2013-09-28 22:22:00,
2013-09-28 17:37:00,71.7,69.0,29.89,WSW,240,2.0,2.0,90,0.00,,,0.06,weatherlink.com 1.10,2013-09-28 22:37:00,
2013-09-28 17:52:00,71.5,69.0,29.88,SSE,158,2.0,3.0,91,0.00,,,0.06,weatherlink.com 1.10,2013-09-28 22:52:00,
2013-09-28 18:07:00,71.6,69.0,29.88,WSW,239,1.0,4.0,90,0.00,,,0.06,weatherlink.com 1.10,2013-09-28 23:07:00,
2013-09-28 18:22:00,71.6,69.0,29.88,SW,235,0.0,4.0,90,0.00,,,0.06,weatherlink.com 1.10,2013-09-28 23:22:00,
2013-09-28 18:37:00,71.5,69.0,29.89,SW,221,2.0,4.0,91,0.00,,,0.06,weatherlink.com 1.10,2013-09-28 23:37:00,
2013-09-28 18:52:00,71.3,69.0,29.89,WSW,245,1.0,4.0,91,0.00,,,0.06,weatherlink.com 1.10,2013-09-28 23:52:00,
2013-09-28 19:07:00,71.0,69.0,29.89,West,263,0.0,1.0,93,0.00,,,0.06,weatherlink.com 1.10,2013-09-29 00:07:00,
2013-09-28 19:22:00,70.8,69.0,29.88,West,263,0.0,1.0,93,0.00,,,0.06,weatherlink.com 1.10,2013-09-29 00:22:00,
2013-09-28 19:37:00,70.4,69.0,29.89,West,263,0.0,1.0,94,0.00,,,0.06,weatherlink.com 1.10,2013-09-29 00:37:00,
2013-09-28 19:52:00,70.1,69.0,29.90,West,263,1.0,1.0,95,0.00,,,0.06,weatherlink.com 1.10,2013-09-29 00:52:00,
2013-09-28 20:07:00,69.6,68.0,29.91,WSW,256,4.0,7.0,94,0.02,,,0.08,weatherlink.com 1.10,2013-09-29 01:07:00,
2013-09-28 20:22:00,68.8,68.0,29.91,West,260,1.0,6.0,96,0.05,,,0.11,weatherlink.com 1.10,2013-09-29 01:22:00,
2013-09-28 20:37:00,68.5,67.0,29.91,WNW,301,0.0,3.0,96,0.10,,,0.16,weatherlink.com 1.10,2013-09-29 01:37:00,
2013-09-28 20:52:00,68.1,67.0,29.91,WNW,289,5.0,6.0,96,0.15,,,0.21,weatherlink.com 1.10,2013-09-29 01:52:00,
2013-09-28 21:07:00,65.4,64.0,29.93,NNW,343,4.0,8.0,95,0.16,,,0.24,weatherlink.com 1.10,2013-09-29 02:07:00,
2013-09-28 21:22:00,63.8,62.0,29.93,North,350,6.0,9.0,94,0.14,,,0.25,weatherlink.com 1.10,2013-09-29 02:22:00,
2013-09-28 21:37:00,62.4,61.0,29.95,NW,308,2.0,4.0,96,0.09,,,0.26,weatherlink.com 1.10,2013-09-29 02:37:00,
2013-09-28 21:52:00,61.7,61.0,29.95,WSW,255,1.0,5.0,96,0.05,,,0.26,weatherlink.com 1.10,2013-09-29 02:52:00,
2013-09-28 22:07:00,60.8,59.0,29.95,ESE,110,1.0,6.0,95,0.02,,,0.26,weatherlink.com 1.10,2013-09-29 03:07:00,
2013-09-28 22:22:00,60.1,59.0,29.96,North,350,5.0,8.0,96,0.01,,,0.26,weatherlink.com 1.10,2013-09-29 03:22:00,
2013-09-28 22:52:00,59.0,58.0,29.98,SSW,205,1.0,8.0,95,0.00,,,0.26,weatherlink.com 1.10,2013-09-29 03:52:00,
2013-09-28 23:07:00,58.7,58.0,29.99,West,271,0.0,5.0,96,0.00,,,0.26,weatherlink.com 1.10,2013-09-29 04:07:00,
2013-09-28 23:22:00,58.4,57.0,29.99,WNW,285,2.0,3.0,96,0.00,,,0.26,weatherlink.com 1.10,2013-09-29 04:22:00,
2013-09-28 23:37:00,58.2,57.0,29.99,East,97,0.0,6.0,96,0.00,,,0.26,weatherlink.com 1.10,2013-09-29 04:37:00,
2013-09-28 23:52:00,58.0,57.0,30.00,SSE,149,0.0,4.0,96,0.00,,,0.26,weatherlink.com 1.10,2013-09-29 04:52:00,